QPF
0.00 0.00 0.00 0.00 0.00 0.00 0.00 0.00 0.00 0.00 0.00 0.00 0.00 0.00 0.00 0.00 0.00 0.00 0.00 0.00 0.00 0.00 0.00 0.00 0.00 0.00 0.00 0.00 0.00 0.00 0.01 0.01 0.01 0.00 0.00 0.01 0.01 0.02 0.04 0.05 0.03 0.02 0.03
0.00 0.00 0.00 0.00 0.00 0.00 0.00 0.00 0.00 0.00 0.00 0.00 0.00 0.00 0.00 0.00 0.00 0.00 0.00 0.00 0.00 0.00 0.00 0.00 0.00 0.00 0.00 0.00 0.00 0.00 0.00 0.00 0.00 0.01 0.02 0.03 0.03 0.04 0.04 0.04 0.01 0.02 0.03
0.00 0.00 0.00 0.00 0.00 0.00 0.00 0.00 0.00 0.00 0.00 0.00 0.00 0.00 0.00 0.00 0.00 0.00 0.00 0.00 0.00 0.00 0.00 0.00 0.00 0.00 0.00 0.00 0.00 0.00 0.00 0.01 0.01 0.02 0.02 0.02 0.05 0.06 0.04 0.02 0.02 0.03 0.02
0.00 0.00 0.00 0.00 0.00 0.00 0.00 0.00 0.00 0.00 0.00 0.00 0.00 0.00 0.00 0.00 0.00 0.00 0.00 0.00 0.00 0.00 0.00 0.00 0.00 0.00 0.00 0.00 0.00 0.00 0.00 0.01 0.01 0.01 0.00 0.01 0.03 0.04 0.03 0.01 0.02 0.02 0.02
0.00 0.00 0.00 0.00 0.00 0.00 0.00 0.00 0.00 0.00 0.00 0.00 0.00 0.00 0.00 0.00 0.00 0.00 0.00 0.00 0.00 0.00 0.00 0.00 0.00 0.00 0.00 0.00 0.00 0.00 0.00 0.01 0.01 0.00 0.00 0.00 0.02 0.03 0.02 0.01 0.01 0.02 0.02
0.00 0.00 0.00 0.00 0.00 0.00 0.00 0.00 0.00 0.00 0.00 0.00 0.00 0.00 0.00 0.00 0.00 0.00 0.00 0.00 0.00 0.00 0.00 0.01 0.01 0.00 0.00 0.00 0.00 0.00 0.00 0.00 0.01 0.00 0.00 0.00 0.01 0.02 0.01 0.01 0.01 0.01 0.01
0.00 0.00 0.00 0.01 0.00 0.00 0.00 0.00 0.00 0.00 0.00 0.00 0.00 0.00 0.00 0.00 0.00 0.00 0.00 0.00 0.00 0.01 0.00 0.00 0.00 0.00 0.00 0.00 0.00 0.00 0.00 0.01 0.01 0.01 0.01 0.01 0.00 0.02 0.02 0.01 0.01 0.00 0.00
0.00 0.00 0.00 0.01 0.01 0.00 0.01 0.00 0.01 0.01 0.01 0.01 0.00 0.00 0.00 0.00 0.00 0.00 0.00 0.00 0.01 0.01 0.01 0.01 0.00 0.00 0.00 0.00 0.00 0.00 0.01 0.01 0.01 0.01 0.02 0.02 0.01 0.03 0.03 0.02 0.01 0.00 0.00
0.00 0.00 0.00 0.00 0.00 0.00 0.01 0.01 0.01 0.01 0.01 0.01 0.01 0.01 0.01 0.01 0.01 0.01 0.01 0.01 0.01 0.01 0.01 0.01 0.01 0.00 0.00 0.00 0.00 0.00 0.01 0.01 0.01 0.01 0.01 0.02 0.01 0.03 0.04 0.03 0.02 0.01 0.00
0.00 0.00 0.00 0.00 0.00 0.00 0.00 0.01 0.01 0.01 0.01 0.01 0.01 0.01 0.01 0.02 0.02 0.02 0.01 0.01 0.01 0.01 0.01 0.01 0.01 0.00 0.00 0.00 0.00 0.00 0.01 0.01 0.01 0.01 0.01 0.03 0.01 0.03 0.05 0.05 0.04 0.02 0.01
0.01 0.00 0.00 0.00 0.00 0.00 0.00 0.01 0.01 0.01 0.01 0.01 0.01 0.02 0.02 0.02 0.01 0.01 0.02 0.01 0.02 0.03 0.03 0.03 0.03 0.03 0.02 0.01 0.01 0.01 0.01 0.00 0.00 0.01 0.01 0.01 0.01 0.05 0.08 0.09 0.06 0.03 0.02
0.02 0.01 0.00 0.00 0.00 0.01 0.01 0.01 0.01 0.01 0.01 0.01 0.01 0.01 0.01 0.01 0.01 0.00 0.01 0.02 0.04 0.07 0.08 0.07 0.08 0.08 0.07 0.04 0.03 0.03 0.01 0.01 0.01 0.01 0.00 0.01 0.02 0.06 0.11 0.13 0.10 0.06 0.04
0.03 0.01 0.01 0.02 0.03 0.03 0.02 0.02 0.01 0.01 0.01 0.01 0.01 0.02 0.02 0.02 0.02 0.01 0.01 0.03 0.07 0.11 0.14 0.15 0.15 0.15 0.14 0.12 0.10 0.07 0.04 0.02 0.02 0.02 0.02 0.02 0.04 0.06 0.10 0.13 0.12 0.10 0.07
0.05 0.06 0.08 0.08 0.09 0.08 0.08 0.09 0.08 0.08 0.07 0.06 0.06 0.06 0.05 0.06 0.07 0.07 0.08 0.09 0.10 0.11 0.15 0.18 0.18 0.18 0.17 0.17 0.14 0.09 0.06 0.04 0.03 0.02 0.02 0.02 0.04 0.05 0.09 0.14 0.14 0.14 0.12
0.11 0.19 0.20 0.16 0.20 0.24 0.24 0.25 0.22 0.21 0.19 0.18 0.17 0.16 0.16 0.16 0.18 0.17 0.15 0.12 0.10 0.08 0.11 0.16 0.18 0.19 0.19 0.17 0.14 0.12 0.09 0.07 0.05 0.04 0.03 0.05 0.05 0.06 0.09 0.16 0.17 0.16 0.15
0.17 0.22 0.23 0.24 0.32 0.35 0.33 0.33 0.36 0.27 0.22 0.21 0.20 0.20 0.22 0.21 0.22 0.18 0.17 0.15 0.12 0.09 0.07 0.10 0.11 0.11 0.12 0.12 0.12 0.13 0.14 0.12 0.09 0.07 0.05 0.08 0.09 0.08 0.09 0.14 0.20 0.20 0.20
0.22 0.25 0.29 0.29 0.32 0.34 0.32 0.32 0.32 0.26 0.23 0.22 0.18 0.17 0.16 0.17 0.17 0.14 0.11 0.09 0.07 0.05 0.03 0.05 0.06 0.07 0.09 0.10 0.11 0.12 0.12 0.13 0.11 0.09 0.08 0.08 0.09 0.10 0.11 0.12 0.15 0.19 0.21
0.21 0.21 0.23 0.23 0.26 0.27 0.26 0.30 0.27 0.20 0.18 0.15 0.13 0.13 0.12 0.10 0.09 0.09 0.06 0.04 0.03 0.02 0.03 0.03 0.03 0.04 0.06 0.08 0.09 0.09 0.08 0.08 0.10 0.09 0.08 0.07 0.08 0.10 0.10 0.12 0.14 0.17 0.19
0.14 0.13 0.13 0.13 0.14 0.14 0.13 0.18 0.18 0.13 0.10 0.09 0.09 0.08 0.08 0.07 0.07 0.06 0.04 0.03 0.03 0.03 0.02 0.02 0.01 0.01 0.01 0.02 0.04 0.05 0.07 0.07 0.06 0.06 0.07 0.07 0.08 0.09 0.10 0.12 0.18 0.22 0.22
0.08 0.06 0.06 0.06 0.06 0.07 0.07 0.06 0.06 0.05 0.04 0.05 0.04 0.03 0.03 0.03 0.02 0.02 0.02 0.02 0.02 0.02 0.02 0.01 0.01 0.01 0.01 0.02 0.03 0.04 0.04 0.04 0.04 0.04 0.04 0.05 0.05 0.06 0.09 0.12 0.15 0.18 0.23
0.04 0.03 0.03 0.03 0.03 0.03 0.02 0.02 0.01 0.01 0.01 0.01 0.01 0.01 0.01 0.01 0.01 0.01 0.01 0.01 0.01 0.01 0.01 0.01 0.01 0.01 0.01 0.01 0.02 0.03 0.03 0.03 0.03 0.02 0.03 0.04 0.04 0.05 0.07 0.09 0.11 0.13 0.15
0.02 0.02 0.01 0.02 0.02 0.02 0.00 0.00 0.00 0.00 0.00 0.00 0.00 0.00 0.00 0.00 0.00 0.01 0.01 0.01 0.00 0.00 0.00 0.00 0.00 0.01 0.01 0.01 0.01 0.02 0.02 0.03 0.03 0.03 0.03 0.03 0.03 0.05 0.06 0.06 0.07 0.09 0.10
0.01 0.01 0.01 0.00 0.00 0.00 0.00 0.00 0.00 0.00 0.00 0.00 0.00 0.00 0.00 0.00 0.00 0.00 0.00 0.00 0.00 0.00 0.00 0.00 0.00 0.00 0.00 0.00 0.01 0.03 0.03 0.02 0.02 0.03 0.04 0.04 0.03 0.04 0.05 0.06 0.05 0.05 0.07
0.00 0.00 0.00 0.00 0.00 0.00 0.00 0.00 0.00 0.00 0.00 0.00 0.00 0.00 0.00 0.00 0.00 0.00 0.00 0.00 0.00 0.00 0.00 0.00 0.00 0.00 0.00 0.00 0.01 0.02 0.04 0.04 0.04 0.03 0.03 0.04 0.05 0.04 0.05 0.06 0.05 0.05 0.05
0.00 0.00 0.00 0.00 0.00 0.00 0.00 0.00 0.00 0.00 0.00 0.00 0.00 0.00 0.00 0.00 0.00 0.00 0.00 0.00 0.00 0.00 0.00 0.00 0.00 0.00 0.00 0.00 0.00 0.01 0.01 0.02 0.05 0.06 0.05 0.04 0.04 0.05 0.06 0.06 0.06 0.05 0.05
0.00 0.00 0.00 0.00 0.00 0.00 0.00 0.00 0.00 0.00 0.00 0.00 0.00 0.00 0.00 0.00 0.00 0.00 0.00 0.00 0.00 0.00 0.00 0.00 0.00 0.00 0.00 0.00 0.00 0.00 0.01 0.02 0.03 0.06 0.06 0.04 0.04 0.05 0.06 0.07 0.07 0.06 0.05
MSLP
1011.12 1010.92 1010.86 1010.96 1011.17 1011.45 1011.72 1011.95 1012.09 1012.18 1012.24 1012.32 1012.47 1012.71 1013.05 1013.45 1013.87 1014.28 1014.62 1014.89 1015.08 1015.21 1015.30 1015.37 1015.43 1015.51 1015.59 1015.68 1015.76 1015.85 1015.93 1016.01 1016.10 1016.21 1016.33 1016.47 1016.63 1016.79 1016.96 1017.13 1017.30 1017.47 1017.64
1010.89 1010.77 1010.78 1010.93 1011.20 1011.52 1011.84 1012.10 1012.28 1012.40 1012.50 1012.61 1012.79 1013.06 1013.40 1013.79 1014.19 1014.56 1014.87 1015.10 1015.26 1015.38 1015.46 1015.54 1015.62 1015.72 1015.82 1015.92 1016.01 1016.08 1016.15 1016.22 1016.31 1016.42 1016.56 1016.72 1016.90 1017.09 1017.28 1017.46 1017.63 1017.80 1017.96
1010.63 1010.57 1010.65 1010.87 1011.20 1011.58 1011.95 1012.27 1012.50 1012.67 1012.81 1012.97 1013.17 1013.44 1013.76 1014.12 1014.48 1014.79 1015.04 1015.22 1015.35 1015.44 1015.53 1015.63 1015.75 1015.88 1016.01 1016.14 1016.24 1016.33 1016.40 1016.47 1016.56 1016.68 1016.83 1017.01 1017.20 1017.40 1017.59 1017.77 1017.94 1018.10 1018.26
1010.39 1010.39 1010.52 1010.81 1011.21 1011.66 1012.09 1012.46 1012.75 1012.96 1013.14 1013.31 1013.52 1013.78 1014.08 1014.39 1014.68 1014.93 1015.12 1015.25 1015.34 1015.43 1015.53 1015.66 1015.82 1016.00 1016.18 1016.34 1016.47 1016.57 1016.66 1016.74 1016.84 1016.97 1017.13 1017.31 1017.51 1017.70 1017.88 1018.05 1018.21 1018.36 1018.53
1010.22 1010.27 1010.46 1010.82 1011.28 1011.78 1012.26 1012.67 1012.99 1013.22 1013.41 1013.59 1013.79 1014.03 1014.29 1014.56 1014.80 1014.99 1015.12 1015.21 1015.29 1015.37 1015.49 1015.66 1015.87 1016.09 1016.32 1016.52 1016.68 1016.81 1016.91 1017.01 1017.12 1017.26 1017.42 1017.60 1017.79 1017.97 1018.13 1018.28 1018.43 1018.58 1018.75
1010.18 1010.25 1010.50 1010.91 1011.42 1011.96 1012.46 1012.88 1013.19 1013.42 1013.60 1013.77 1013.96 1014.17 1014.40 1014.64 1014.84 1014.99 1015.09 1015.16 1015.23 1015.32 1015.46 1015.66 1015.91 1016.18 1016.44 1016.68 1016.87 1017.01 1017.13 1017.24 1017.36 1017.50 1017.67 1017.85 1018.02 1018.18 1018.33 1018.46 1018.59 1018.73 1018.91
1010.25 1010.36 1010.65 1011.10 1011.63 1012.18 1012.67 1013.07 1013.35 1013.55 1013.70 1013.84 1014.01 1014.21 1014.43 1014.65 1014.84 1014.97 1015.07 1015.13 1015.20 1015.31 1015.47 1015.69 1015.96 1016.26 1016.54 1016.79 1016.99 1017.14 1017.27 1017.39 1017.52 1017.67 1017.84 1018.02 1018.18 1018.33 1018.46 1018.57 1018.69 1018.83 1019.02
1010.45 1010.59 1010.92 1011.39 1011.93 1012.46 1012.91 1013.24 1013.47 1013.61 1013.72 1013.83 1013.99 1014.19 1014.42 1014.64 1014.84 1014.99 1015.09 1015.16 1015.24 1015.35 1015.52 1015.75 1016.02 1016.31 1016.59 1016.83 1017.03 1017.18 1017.31 1017.43 1017.57 1017.73 1017.91 1018.10 1018.26 1018.41 1018.52 1018.63 1018.74 1018.88 1019.08
1010.74 1010.92 1011.28 1011.77 1012.29 1012.78 1013.16 1013.42 1013.57 1013.64 1013.70 1013.79 1013.94 1014.15 1014.41 1014.66 1014.89 1015.06 1015.17 1015.25 1015.33 1015.43 1015.59 1015.80 1016.05 1016.32 1016.57 1016.79 1016.96 1017.10 1017.22 1017.35 1017.50 1017.67 1017.87 1018.07 1018.25 1018.40 1018.52 1018.62 1018.73 1018.88 1019.09
1011.08 1011.32 1011.72 1012.21 1012.71 1013.13 1013.44 1013.60 1013.67 1013.67 1013.69 1013.76 1013.92 1014.15 1014.44 1014.72 1014.98 1015.17 1015.29 1015.37 1015.43 1015.52 1015.64 1015.81 1016.02 1016.25 1016.46 1016.65 1016.79 1016.91 1017.02 1017.15 1017.30 1017.50 1017.72 1017.94 1018.14 1018.31 1018.44 1018.56 1018.67 1018.82 1019.03
1011.46 1011.76 1012.19 1012.69 1013.15 1013.51 1013.72 1013.80 1013.78 1013.73 1013.71 1013.77 1013.94 1014.19 1014.51 1014.82 1015.09 1015.29 1015.41 1015.48 1015.52 1015.56 1015.65 1015.77 1015.93 1016.11 1016.27 1016.42 1016.53 1016.62 1016.72 1016.85 1017.01 1017.22 1017.46 1017.70 1017.93 1018.13 1018.29 1018.42 1018.55 1018.70 1018.91
1011.84 1012.21 1012.67 1013.16 1013.58 1013.86 1014.00 1014.00 1013.91 1013.81 1013.76 1013.82 1013.99 1014.27 1014.60 1014.92 1015.20 1015.39 1015.50 1015.54 1015.54 1015.55 1015.59 1015.66 1015.77 1015.90 1016.03 1016.13 1016.21 1016.28 1016.36 1016.48 1016.64 1016.85 1017.11 1017.37 1017.63 1017.86 1018.04 1018.20 1018.34 1018.51 1018.72
1012.21 1012.63 1013.11 1013.58 1013.95 1014.17 1014.23 1014.16 1014.03 1013.89 1013.83 1013.89 1014.07 1014.34 1014.67 1015.00 1015.26 1015.44 1015.52 1015.53 1015.50 1015.47 1015.47 1015.51 1015.58 1015.67 1015.75 1015.82 1015.88 1015.92 1015.98 1016.08 1016.23 1016.43 1016.69 1016.96 1017.24 1017.48 1017.70 1017.88 1018.04 1018.22 1018.43
1012.55 1013.00 1013.48 1013.91 1014.22 1014.38 1014.38 1014.27 1014.10 1013.96 1013.89 1013.95 1014.12 1014.39 1014.71 1015.01 1015.25 1015.41 1015.47 1015.46 1015.41 1015.36 1015.34 1015.35 1015.39 1015.45 1015.50 1015.55 1015.57 1015.59 1015.61 1015.68 1015.80 1015.98 1016.21 1016.48 1016.75 1017.01 1017.24 1017.44 1017.63 1017.82 1018.05
1012.87 1013.30 1013.74 1014.12 1014.37 1014.47 1014.43 1014.30 1014.12 1013.98 1013.92 1013.97 1014.14 1014.39 1014.68 1014.96 1015.17 1015.31 1015.36 1015.35 1015.30 1015.25 1015.22 1015.22 1015.24 1015.28 1015.31 1015.32 1015.32 1015.30 1015.29 1015.31 1015.38 1015.52 1015.71 1015.94 1016.19 1016.44 1016.68 1016.90 1017.11 1017.33 1017.57
1013.14 1013.53 1013.89 1014.19 1014.37 1014.43 1014.37 1014.24 1014.08 1013.96 1013.91 1013.97 1014.12 1014.35 1014.60 1014.85 1015.04 1015.17 1015.23 1015.23 1015.21 1015.18 1015.16 1015.16 1015.17 1015.19 1015.19 1015.17 1015.13 1015.07 1015.01 1014.98 1015.00 1015.07 1015.20 1015.38 1015.59 1015.81 1016.04 1016.26 1016.49 1016.74 1017.01
1013.37 1013.67 1013.94 1014.15 1014.27 1014.30 1014.24 1014.14 1014.02 1013.93 1013.90 1013.96 1014.09 1014.28 1014.50 1014.71 1014.90 1015.03 1015.11 1015.15 1015.17 1015.17 1015.17 1015.18 1015.18 1015.17 1015.14 1015.08 1014.99 1014.89 1014.78 1014.70 1014.65 1014.65 1014.71 1014.82 1014.97 1015.15 1015.36 1015.58 1015.82 1016.09 1016.39
1013.56 1013.74 1013.90 1014.03 1014.10 1014.12 1014.09 1014.03 1013.96 1013.92 1013.92 1013.97 1014.08 1014.24 1014.42 1014.60 1014.78 1014.92 1015.04 1015.13 1015.18 1015.22 1015.24 1015.25 1015.23 1015.19 1015.11 1015.01 1014.88 1014.73 1014.58 1014.45 1014.35 1014.28 1014.27 1014.31 1014.39 1014.51 1014.68 1014.88 1015.13 1015.41 1015.74
1013.70 1013.76 1013.82 1013.87 1013.92 1013.95 1013.96 1013.97 1013.98 1013.99 1014.01 1014.06 1014.14 1014.25 1014.38 1014.54 1014.70 1014.86 1015.01 1015.14 1015.24 1015.31 1015.34 1015.33 1015.28 1015.19 1015.07 1014.92 1014.75 1014.57 1014.40 1014.23 1014.09 1013.98 1013.90 1013.87 1013.88 1013.94 1014.05 1014.23 1014.46 1014.75 1015.09
1013.79 1013.74 1013.72 1013.73 1013.77 1013.83 1013.92 1014.01 1014.09 1014.15 1014.20 1014.24 1014.28 1014.34 1014.42 1014.53 1014.68 1014.84 1015.02 1015.18 1015.31 1015.39 1015.41 1015.37 1015.28 1015.14 1014.97 1014.78 1014.59 1014.40 1014.22 1014.05 1013.89 1013.75 1013.62 1013.53 1013.47 1013.46 1013.51 1013.64 1013.84 1014.11 1014.46
1013.84 1013.72 1013.64 1013.63 1013.69 1013.81 1013.97 1014.15 1014.30 1014.42 1014.48 1014.50 1014.50 1014.49 1014.51 1014.58 1014.69 1014.85 1015.03 1015.20 1015.33 1015.41 1015.40 1015.33 1015.19 1015.00 1014.79 1014.58 1014.38 1014.20 1014.04 1013.89 1013.74 1013.60 1013.44 1013.30 1013.18 1013.10 1013.08 1013.14 1013.29 1013.54 1013.86
1013.86 1013.70 1013.60 1013.60 1013.69 1013.87 1014.11 1014.37 1014.59 1014.75 1014.82 1014.82 1014.76 1014.69 1014.65 1014.65 1014.72 1014.84 1015.00 1015.16 1015.28 1015.33 1015.29 1015.17 1014.98 1014.75 1014.52 1014.30 1014.12 1013.98 1013.86 1013.76 1013.65 1013.52 1013.36 1013.18 1013.00 1012.85 1012.75 1012.74 1012.83 1013.02 1013.29
1013.87 1013.71 1013.61 1013.63 1013.76 1014.00 1014.31 1014.63 1014.90 1015.09 1015.16 1015.13 1015.03 1014.89 1014.77 1014.71 1014.72 1014.80 1014.93 1015.05 1015.14 1015.15 1015.07 1014.91 1014.68 1014.42 1014.18 1013.98 1013.84 1013.75 1013.70 1013.67 1013.61 1013.51 1013.35 1013.15 1012.92 1012.70 1012.53 1012.43 1012.44 1012.56 1012.78
1013.89 1013.75 1013.67 1013.71 1013.88 1014.15 1014.50 1014.86 1015.17 1015.37 1015.44 1015.38 1015.23 1015.04 1014.86 1014.74 1014.69 1014.72 1014.79 1014.87 1014.91 1014.88 1014.76 1014.56 1014.31 1014.04 1013.81 1013.64 1013.55 1013.54 1013.56 1013.60 1013.60 1013.54 1013.40 1013.18 1012.91 1012.64 1012.39 1012.21 1012.14 1012.17 1012.31
1013.95 1013.84 1013.78 1013.83 1014.00 1014.29 1014.65 1015.02 1015.33 1015.53 1015.59 1015.51 1015.34 1015.10 1014.88 1014.70 1014.60 1014.58 1014.60 1014.63 1014.62 1014.55 1014.40 1014.17 1013.91 1013.65 1013.44 1013.32 1013.29 1013.34 1013.44 1013.54 1013.60 1013.58 1013.45 1013.23 1012.94 1012.62 1012.31 1012.07 1011.91 1011.86 1011.90
1014.06 1013.97 1013.92 1013.96 1014.11 1014.38 1014.72 1015.07 1015.37 1015.56 1015.60 1015.52 1015.32 1015.07 1014.82 1014.61 1014.47 1014.40 1014.38 1014.36 1014.31 1014.20 1014.02 1013.79 1013.53 1013.29 1013.11 1013.03 1013.05 1013.16 1013.31 1013.47 1013.58 1013.59 1013.49 1013.28 1012.98 1012.64 1012.29 1011.99 1011.76 1011.63 1011.59
Thickness
5806 5806 5803 5800 5797 5795 5794 5793 5792 5791 5789 5787 5785 5782 5779 5777 5775 5773 5771 5769 5768 5766 5765 5764 5763 5762 5760 5759 5758 5757 5756 5755 5754 5752 5751 5750 5749 5748 5747 5746 5745 5744 5742
5812 5807 5803 5799 5796 5794 5792 5790 5789 5787 5786 5784 5782 5780 5777 5775 5773 5771 5769 5767 5766 5765 5763 5762 5761 5760 5758 5757 5756 5755 5754 5753 5752 5751 5750 5748 5747 5746 5746 5745 5744 5742 5741
5811 5806 5802 5798 5795 5792 5790 5788 5786 5784 5782 5780 5779 5777 5775 5773 5771 5769 5767 5766 5764 5763 5762 5760 5759 5757 5756 5755 5754 5753 5752 5751 5750 5749 5748 5747 5745 5745 5744 5743 5742 5741 5740
5810 5805 5801 5797 5793 5790 5788 5786 5783 5781 5779 5777 5775 5773 5772 5770 5768 5767 5765 5764 5762 5761 5759 5758 5756 5755 5754 5753 5752 5751 5750 5749 5748 5747 5746 5745 5744 5743 5743 5742 5741 5740 5738
5807 5803 5799 5795 5791 5788 5786 5783 5781 5779 5776 5774 5772 5770 5769 5767 5765 5764 5762 5761 5760 5758 5757 5755 5754 5753 5751 5750 5749 5748 5747 5746 5746 5745 5744 5743 5743 5742 5741 5740 5739 5738 5737
5804 5800 5797 5793 5789 5786 5783 5781 5779 5776 5774 5771 5769 5768 5766 5764 5762 5761 5759 5758 5757 5756 5754 5753 5751 5750 5749 5747 5746 5745 5744 5744 5743 5742 5741 5741 5740 5740 5739 5738 5738 5737 5736
5801 5798 5794 5790 5787 5783 5780 5778 5776 5773 5771 5769 5766 5764 5763 5761 5759 5758 5756 5755 5754 5752 5751 5750 5749 5747 5746 5745 5744 5743 5742 5741 5741 5740 5739 5739 5738 5738 5737 5736 5736 5735 5734
5799 5795 5791 5788 5784 5781 5778 5775 5773 5771 5768 5766 5764 5761 5760 5758 5757 5755 5753 5752 5751 5749 5748 5747 5746 5744 5743 5742 5741 5740 5739 5739 5739 5738 5737 5737 5736 5736 5735 5734 5734 5733 5732
5795 5792 5788 5785 5781 5778 5775 5772 5770 5768 5766 5764 5762 5760 5758 5756 5755 5753 5751 5750 5748 5747 5745 5744 5743 5742 5740 5739 5738 5737 5737 5736 5736 5735 5735 5735 5734 5734 5734 5733 5732 5732 5731
5789 5786 5783 5780 5777 5774 5771 5769 5767 5766 5763 5761 5759 5758 5756 5754 5753 5751 5749 5747 5746 5745 5743 5742 5740 5739 5738 5736 5735 5734 5734 5733 5733 5733 5732 5732 5732 5732 5732 5732 5731 5730 5730
5782 5780 5778 5775 5772 5769 5767 5765 5764 5762 5760 5758 5756 5754 5753 5751 5750 5748 5747 5745 5744 5742 5741 5740 5738 5736 5735 5734 5733 5732 5731 5731 5730 5730 5730 5730 5730 5730 5731 5730 5730 5729 5729
5774 5773 5771 5769 5767 5763 5761 5760 5759 5757 5755 5754 5751 5749 5748 5746 5745 5744 5743 5742 5741 5740 5738 5737 5735 5734 5732 5731 5729 5728 5727 5727 5727 5727 5728 5728 5729 5729 5729 5730 5729 5729 5728
5769 5767 5765 5763 5760 5758 5756 5754 5753 5751 5750 5748 5747 5745 5743 5741 5740 5739 5738 5737 5736 5735 5734 5734 5732 5731 5730 5728 5726 5725 5724 5723 5724 5724 5725 5726 5727 5728 5728 5728 5728 5728 5727
5763 5762 5761 5758 5755 5752 5750 5749 5747 5745 5743 5742 5742 5740 5739 5736 5735 5734 5732 5732 5731 5730 5730 5729 5728 5728 5727 5725 5723 5722 5721 5720 5721 5721 5722 5723 5724 5725 5726 5727 5727 5727 5727
5757 5756 5755 5753 5750 5747 5743 5742 5740 5739 5737 5737 5736 5735 5734 5732 5731 5730 5728 5726 5725 5724 5724 5725 5724 5724 5723 5721 5720 5719 5719 5718 5718 5719 5719 5720 5721 5723 5724 5725 5726 5726 5726
5752 5750 5749 5747 5744 5740 5737 5735 5733 5733 5732 5730 5729 5729 5728 5727 5726 5725 5723 5721 5719 5719 5719 5719 5719 5718 5718 5717 5717 5716 5716 5716 5716 5717 5717 5717 5719 5720 5721 5723 5725 5726 5726
5745 5744 5743 5741 5738 5735 5733 5730 5728 5727 5726 5725 5723 5723 5722 5722 5720 5718 5716 5715 5714 5713 5713 5713 5713 5712 5711 5711 5711 5711 5712 5713 5714 5714 5715 5715 5716 5718 5720 5721 5722 5724 5725
5740 5739 5737 5736 5732 5730 5728 5725 5724 5722 5720 5719 5718 5716 5715 5714 5713 5711 5709 5708 5707 5707 5706 5706 5705 5704 5704 5704 5705 5706 5708 5709 5711 5712 5713 5713 5714 5716 5717 5719 5721 5722 5723
5736 5734 5731 5729 5727 5725 5722 5720 5718 5716 5714 5712 5711 5709 5708 5706 5705 5704 5702 5701 5700 5699 5698 5698 5698 5696 5696 5697 5699 5701 5703 5705 5707 5709 5711 5711 5712 5714 5715 5717 5719 5720 5721
5731 5730 5727 5724 5721 5719 5716 5713 5711 5709 5707 5705 5703 5701 5700 5698 5697 5695 5694 5692 5691 5689 5689 5688 5688 5688 5688 5689 5692 5696 5698 5701 5704 5706 5708 5709 5711 5712 5714 5715 5717 5718 5719
5726 5724 5721 5718 5716 5713 5709 5706 5703 5701 5699 5697 5695 5694 5692 5690 5688 5687 5685 5683 5682 5680 5679 5679 5679 5679 5680 5681 5682 5686 5692 5697 5700 5703 5705 5706 5708 5710 5711 5713 5715 5716 5718
5722 5719 5717 5714 5711 5708 5705 5701 5698 5695 5691 5689 5686 5685 5683 5681 5679 5678 5676 5675 5673 5672 5671 5670 5669 5669 5670 5671 5671 5673 5677 5685 5692 5698 5700 5702 5704 5706 5708 5711 5713 5715 5716
5718 5716 5714 5710 5706 5703 5700 5695 5691 5687 5683 5680 5678 5675 5674 5672 5670 5669 5668 5666 5665 5663 5662 5662 5660 5660 5660 5661 5662 5662 5664 5668 5676 5686 5692 5695 5698 5701 5704 5708 5711 5713 5714
5717 5714 5711 5707 5702 5699 5695 5690 5685 5679 5675 5672 5669 5667 5665 5663 5662 5661 5659 5658 5657 5655 5654 5654 5654 5652 5652 5651 5653 5655 5657 5660 5662 5670 5680 5686 5690 5694 5699 5703 5707 5710 5712
5717 5713 5708 5703 5699 5694 5690 5685 5679 5674 5670 5666 5663 5660 5658 5656 5654 5653 5652 5650 5649 5648 5647 5646 5645 5644 5644 5644 5644 5646 5648 5651 5655 5657 5665 5673 5680 5687 5693 5698 5702 5706 5709
5715 5711 5706 5700 5694 5689 5684 5679 5674 5668 5664 5660 5656 5653 5651 5648 5647 5646 5644 5642 5641 5639 5639 5638 5637 5636 5636 5636 5637 5638 5640 5642 5645 5649 5654 5661 5668 5678 5686 5692 5697 5701 5705